Everett, WA

6:50 AM PDT on August 18, 2017 (GMT -0700)
Snohomish County

Weather History for KPAE - July, 2013

Change the Weather History Date:

Saturday, July 27, 2013

  Actual Average Record
Temperature  
Mean Temperature 63 °F -  
Max Temperature 73 °F 74 °F 89 °F (1998)
Min Temperature 53 °F 54 °F 46 °F (1992)
Degree Days  
Heating Degree Days 2    
Growing Degree Days 13 (Base 50)    
Moisture  
Dew Point 49 °F    
Average Humidity 64    
Maximum Humidity 86    
Minimum Humidity 37    
Precipitation  
Precipitation 0.00 in - - ()
Sea Level Pressure  
Sea Level Pressure 30.11 in    
Wind  
Wind Speed 4 mph (NW)    
Max Wind Speed 8 mph    
Max Gust Speed -    
Visibility 10 miles    
Events      
Averages and records for this station are not official NWS values.
T = Trace of Precipitation, MM = Missing Value Source: NWS Daily Summary

Daily Weather History Graph

Daily Weather History Graph

Search for Another Location

Airport or City:

Trip Planner

Search our weather history database for the weather conditions in past years. The results will help you decide how hot, cold, wet, or windy it might be!

Date:

Astronomy

Jul. 27, 2013 Rise Set
Actual Time 5:39 AM PDT 8:50 PM PDT
Civil Twilight 5:02 AM PDT 9:27 PM PDT
Nautical Twilight 4:14 AM PDT 10:15 PM PDT
Astronomical Twilight 3:12 AM PDT 11:16 PM PDT
Moon 11:07 PM PDT (7/27) 11:57 AM PDT (7/27)
Length of Visible Light 16h 25m
Length of Day
15h 10m
Waning Gibbous, 70% of the Moon is Illuminated
Jul 27
Waning Gibbous
Jul 29
Last Quarter
Aug 6
New
Aug 14
First Quarter
Aug 20
Full

Hourly Weather History & Observations

Time (PDT) Temp. Dew Point Humidity Pressure Visibility Wind Dir Wind Speed Gust Speed Precip Events Conditions
12:53 AM 55.9 °F 48.9 °F 77% 30.14 in 10.0 mi North 5.8 mph - N/A   Clear
1:53 AM 55.0 °F 48.9 °F 80% 30.15 in 10.0 mi North 5.8 mph - N/A   Clear
2:53 AM 54.0 °F 48.9 °F 83% 30.15 in 10.0 mi North 4.6 mph - N/A   Clear
3:53 AM 53.1 °F 48.9 °F 86% 30.16 in 10.0 mi Calm Calm - N/A   Clear
4:53 AM 53.1 °F 48.0 °F 83% 30.15 in 10.0 mi Calm Calm - N/A   Clear
5:53 AM 54.0 °F 48.0 °F 80% 30.15 in 10.0 mi Calm Calm - N/A   Clear
6:53 AM 55.9 °F 50.0 °F 80% 30.17 in 10.0 mi Calm Calm - N/A   Clear
7:53 AM 55.9 °F 50.0 °F 80% 30.17 in 10.0 mi West 4.6 mph - N/A   Clear
8:53 AM 57.9 °F 51.1 °F 78% 30.17 in 10.0 mi West 3.5 mph - N/A   Clear
9:53 AM 60.1 °F 51.1 °F 72% 30.17 in 10.0 mi WSW 6.9 mph - N/A   Clear
10:53 AM 61.0 °F 51.1 °F 70% 30.16 in 10.0 mi West 8.1 mph - N/A   Clear
11:53 AM 64.9 °F 50.0 °F 58% 30.15 in 10.0 mi West 5.8 mph - N/A   Clear
12:53 PM 66.0 °F 48.9 °F 54% 30.13 in 10.0 mi West 6.9 mph - N/A   Clear
1:53 PM 68.0 °F 48.9 °F 50% 30.12 in 10.0 mi NW 5.8 mph - N/A   Clear
2:53 PM 70.0 °F 48.9 °F 47% 30.11 in 10.0 mi NW 5.8 mph - N/A   Clear
3:53 PM 71.1 °F 46.9 °F 42% 30.09 in 10.0 mi West 8.1 mph - N/A   Clear
4:53 PM 72.0 °F 44.1 °F 37% 30.07 in 10.0 mi Variable 3.5 mph - N/A   Clear
5:53 PM 73.9 °F 46.0 °F 37% 30.05 in 10.0 mi Variable 4.6 mph - N/A   Clear
6:53 PM 73.0 °F 46.9 °F 39% 30.04 in 10.0 mi North 5.8 mph - N/A   Clear
7:53 PM 71.1 °F 46.9 °F 42% 30.03 in 10.0 mi NNW 3.5 mph - N/A   Clear
8:53 PM 64.0 °F 50.0 °F 60% 30.03 in 10.0 mi Calm Calm - N/A   Clear
9:53 PM 62.1 °F 50.0 °F 65% 30.03 in 10.0 mi Calm Calm - N/A   Clear
10:53 PM 57.9 °F 50.0 °F 75% 30.03 in 10.0 mi North 3.5 mph - N/A   Clear
11:53 PM 59.0 °F 48.9 °F 69% 30.02 in 10.0 mi NNE 4.6 mph - N/A   Clear